Year,Month,Day,Hour,Minute,Value (Times are PST for temperature in C)
2018,04,11,00,00,10.20
2018,04,11,00,01,10.20
2018,04,11,00,02,10.20
2018,04,11,00,03,10.20
2018,04,11,00,04,10.20
2018,04,11,00,05,10.20
2018,04,11,00,06,10.20
2018,04,11,00,07,10.20
2018,04,11,00,08,10.20
2018,04,11,00,09,10.10
2018,04,11,00,10,10.10
2018,04,11,00,11,10.10
2018,04,11,00,12,10.10
2018,04,11,00,13,10.10
2018,04,11,00,14,10.10
2018,04,11,00,15,10.10
2018,04,11,00,16,10.10
2018,04,11,00,17,10.10
2018,04,11,00,18,10.10
2018,04,11,00,19,10.10
2018,04,11,00,20,10.10
2018,04,11,00,21,10.10
2018,04,11,00,22,10.10
2018,04,11,00,23,10.10
2018,04,11,00,24,10.10
2018,04,11,00,25,10.10
2018,04,11,00,26,10.00
2018,04,11,00,27,9.90
2018,04,11,00,28,9.90
2018,04,11,00,29,9.90
2018,04,11,00,30,9.90
2018,04,11,00,31,9.90
2018,04,11,00,32,9.90
2018,04,11,00,33,9.80
2018,04,11,00,34,9.80
2018,04,11,00,35,9.80
2018,04,11,00,36,9.80
2018,04,11,00,37,9.80
2018,04,11,00,38,9.80
2018,04,11,00,39,9.80
2018,04,11,00,40,9.80
2018,04,11,00,41,9.90
2018,04,11,00,42,9.90
2018,04,11,00,43,9.90
2018,04,11,00,44,9.90
2018,04,11,00,45,9.90
2018,04,11,00,46,9.90
2018,04,11,00,47,9.90
2018,04,11,00,48,9.90
2018,04,11,00,49,9.90
2018,04,11,00,50,9.90
2018,04,11,00,51,9.90
2018,04,11,00,52,9.80
2018,04,11,00,53,9.80
2018,04,11,00,54,9.80
2018,04,11,00,55,9.80
2018,04,11,00,56,9.80
2018,04,11,00,57,9.80
2018,04,11,00,58,9.80
2018,04,11,00,59,9.80
2018,04,11,01,00,9.80
2018,04,11,01,01,9.80
2018,04,11,01,02,9.80
2018,04,11,01,03,9.80
2018,04,11,01,04,9.80
2018,04,11,01,05,9.80
2018,04,11,01,06,9.80
2018,04,11,01,07,9.80
2018,04,11,01,08,9.80
2018,04,11,01,09,9.80
2018,04,11,01,10,9.80
2018,04,11,01,11,9.80
2018,04,11,01,12,9.80
2018,04,11,01,13,9.80
2018,04,11,01,14,9.80
2018,04,11,01,15,9.80
2018,04,11,01,16,9.80
2018,04,11,01,17,9.80
2018,04,11,01,18,9.80
2018,04,11,01,19,9.80
2018,04,11,01,20,9.70
2018,04,11,01,21,9.70
2018,04,11,01,22,9.70
2018,04,11,01,23,9.70
2018,04,11,01,24,9.70
2018,04,11,01,25,9.70
2018,04,11,01,26,9.70
2018,04,11,01,27,9.70
2018,04,11,01,28,9.70
2018,04,11,01,29,9.70
2018,04,11,01,30,9.70
2018,04,11,01,31,9.70
2018,04,11,01,32,9.70
2018,04,11,01,33,9.70
2018,04,11,01,34,9.70
2018,04,11,01,35,9.70
2018,04,11,01,36,9.60
2018,04,11,01,37,9.60
2018,04,11,01,38,9.60
2018,04,11,01,39,9.60
2018,04,11,01,40,9.60
2018,04,11,01,41,9.50
2018,04,11,01,42,9.50
2018,04,11,01,43,9.50
2018,04,11,01,44,9.50
2018,04,11,01,45,9.50
2018,04,11,01,46,9.50
2018,04,11,01,47,9.40
2018,04,11,01,48,9.40
2018,04,11,01,49,9.40
2018,04,11,01,50,9.40
2018,04,11,01,51,9.40
2018,04,11,01,52,9.40
2018,04,11,01,53,9.40
2018,04,11,01,54,9.40
2018,04,11,01,55,9.40
2018,04,11,01,56,9.40
2018,04,11,01,57,9.40
2018,04,11,01,58,9.40
2018,04,11,01,59,9.40
2018,04,11,02,00,9.40
2018,04,11,02,01,9.40
2018,04,11,02,02,9.40
2018,04,11,02,03,9.30
2018,04,11,02,04,9.30
2018,04,11,02,05,9.30
2018,04,11,02,06,9.30
2018,04,11,02,07,9.30
2018,04,11,02,08,9.30
2018,04,11,02,09,9.30
2018,04,11,02,10,9.30
2018,04,11,02,11,9.30
2018,04,11,02,12,9.30
2018,04,11,02,13,9.30
2018,04,11,02,14,9.30
2018,04,11,02,15,9.30
2018,04,11,02,16,9.20
2018,04,11,02,17,9.20
2018,04,11,02,18,9.20
2018,04,11,02,19,9.20
2018,04,11,02,20,9.20
2018,04,11,02,21,9.20
2018,04,11,02,22,9.20
2018,04,11,02,23,9.20
2018,04,11,02,24,9.20
2018,04,11,02,25,9.20
2018,04,11,02,26,9.20
2018,04,11,02,27,9.20
2018,04,11,02,28,9.20
2018,04,11,02,29,9.20
2018,04,11,02,30,9.20
2018,04,11,02,31,9.20
2018,04,11,02,32,9.10
2018,04,11,02,33,9.10
2018,04,11,02,34,9.10
2018,04,11,02,35,9.10
2018,04,11,02,36,9.00
2018,04,11,02,37,9.00
2018,04,11,02,38,9.00
2018,04,11,02,39,9.00
2018,04,11,02,40,8.90
2018,04,11,02,41,8.90
2018,04,11,02,42,8.90
2018,04,11,02,43,8.80
2018,04,11,02,44,8.80
2018,04,11,02,45,8.80
2018,04,11,02,46,8.80
2018,04,11,02,47,8.80
2018,04,11,02,48,8.70
2018,04,11,02,49,8.70
2018,04,11,02,50,8.70
2018,04,11,02,51,8.70
2018,04,11,02,52,8.70
2018,04,11,02,53,8.70
2018,04,11,02,54,8.70
2018,04,11,02,55,8.70
2018,04,11,02,56,8.70
2018,04,11,02,57,8.70
2018,04,11,02,58,8.70
2018,04,11,02,59,8.70
2018,04,11,03,00,8.60
2018,04,11,03,01,8.60
2018,04,11,03,02,8.60
2018,04,11,03,03,8.60
2018,04,11,03,04,8.60
2018,04,11,03,05,8.60
2018,04,11,03,06,8.50
2018,04,11,03,07,8.50
2018,04,11,03,08,8.50
2018,04,11,03,09,8.50
2018,04,11,03,10,8.50
2018,04,11,03,11,8.50
2018,04,11,03,12,8.50
2018,04,11,03,13,8.50
2018,04,11,03,14,8.50
2018,04,11,03,15,8.50
2018,04,11,03,16,8.50
2018,04,11,03,17,8.50
2018,04,11,03,18,8.50
2018,04,11,03,19,8.50
2018,04,11,03,20,8.50
2018,04,11,03,21,8.40
2018,04,11,03,22,8.40
2018,04,11,03,23,8.40
2018,04,11,03,24,8.40
2018,04,11,03,25,8.40
2018,04,11,03,26,8.40
2018,04,11,03,27,8.30
2018,04,11,03,28,8.30
2018,04,11,03,29,8.30
2018,04,11,03,30,8.30
2018,04,11,03,31,8.30
2018,04,11,03,32,8.30
2018,04,11,03,33,8.30
2018,04,11,03,34,8.20
2018,04,11,03,35,8.20
2018,04,11,03,36,8.20
2018,04,11,03,37,8.20
2018,04,11,03,38,8.20
2018,04,11,03,39,8.20
2018,04,11,03,40,8.20
2018,04,11,03,41,8.20
2018,04,11,03,42,8.20
2018,04,11,03,43,8.20
2018,04,11,03,44,8.20
2018,04,11,03,45,8.20
2018,04,11,03,46,8.20
2018,04,11,03,47,8.20
2018,04,11,03,48,8.20
2018,04,11,03,49,8.20
2018,04,11,03,50,8.20
2018,04,11,03,51,8.10
2018,04,11,03,52,8.10
2018,04,11,03,53,8.10
2018,04,11,03,54,8.10
2018,04,11,03,55,8.10
2018,04,11,03,56,8.10
2018,04,11,03,57,8.10
2018,04,11,03,58,8.10
2018,04,11,03,59,8.10
2018,04,11,04,00,8.10
2018,04,11,04,01,8.10
2018,04,11,04,02,8.10
2018,04,11,04,03,8.10
2018,04,11,04,04,8.10
2018,04,11,04,05,8.10
2018,04,11,04,06,8.10
2018,04,11,04,07,8.10
2018,04,11,04,08,8.10
2018,04,11,04,09,8.10
2018,04,11,04,10,8.10
2018,04,11,04,11,8.10
2018,04,11,04,12,8.10
2018,04,11,04,13,8.10
2018,04,11,04,14,8.10
2018,04,11,04,15,8.10
2018,04,11,04,16,8.10
2018,04,11,04,17,8.00
2018,04,11,04,18,8.00
2018,04,11,04,19,8.00
2018,04,11,04,20,8.00
2018,04,11,04,21,8.00
2018,04,11,04,22,8.00
2018,04,11,04,23,8.00
2018,04,11,04,24,8.00
2018,04,11,04,25,8.00
2018,04,11,04,26,8.00
2018,04,11,04,27,8.00
2018,04,11,04,28,8.00
2018,04,11,04,29,8.00
2018,04,11,04,30,8.00
2018,04,11,04,31,8.00
2018,04,11,04,32,8.00
2018,04,11,04,33,8.00
2018,04,11,04,34,8.00
2018,04,11,04,35,8.00
2018,04,11,04,36,8.00
2018,04,11,04,37,8.00
2018,04,11,04,38,8.00
2018,04,11,04,39,8.00
2018,04,11,04,40,8.00
2018,04,11,04,41,8.00
2018,04,11,04,42,8.00
2018,04,11,04,43,8.00
2018,04,11,04,44,8.10
2018,04,11,04,45,8.10
2018,04,11,04,46,8.10
2018,04,11,04,47,8.10
2018,04,11,04,48,8.10
2018,04,11,04,49,8.10
2018,04,11,04,50,8.10
2018,04,11,04,51,8.10
2018,04,11,04,52,8.10
2018,04,11,04,53,8.10
2018,04,11,04,54,8.10
2018,04,11,04,55,8.10
2018,04,11,04,56,8.10
2018,04,11,04,57,8.10
2018,04,11,04,58,8.10
2018,04,11,04,59,8.10
2018,04,11,05,00,8.10
2018,04,11,05,01,8.10
2018,04,11,05,02,8.00
2018,04,11,05,03,8.00
2018,04,11,05,04,8.00
2018,04,11,05,05,8.00
2018,04,11,05,06,8.00
2018,04,11,05,07,8.00
2018,04,11,05,08,8.00
2018,04,11,05,09,8.00
2018,04,11,05,10,8.00
2018,04,11,05,11,8.00
2018,04,11,05,12,8.00
2018,04,11,05,13,8.00
2018,04,11,05,14,8.00
2018,04,11,05,15,8.00
2018,04,11,05,16,8.00
2018,04,11,05,17,8.00
2018,04,11,05,18,8.00
2018,04,11,05,19,8.00
2018,04,11,05,20,8.00
2018,04,11,05,21,8.00
2018,04,11,05,22,8.00
2018,04,11,05,23,8.00
2018,04,11,05,24,8.00
2018,04,11,05,25,8.00
2018,04,11,05,26,7.90
2018,04,11,05,27,7.90
2018,04,11,05,28,7.90
2018,04,11,05,29,7.90
2018,04,11,05,30,7.90
2018,04,11,05,31,7.90
2018,04,11,05,32,7.90
2018,04,11,05,33,7.80
2018,04,11,05,34,7.80
2018,04,11,05,35,7.80
2018,04,11,05,36,7.80
2018,04,11,05,37,7.80
2018,04,11,05,38,7.80
2018,04,11,05,39,7.80
2018,04,11,05,40,7.80
2018,04,11,05,41,7.80
2018,04,11,05,42,7.80
2018,04,11,05,43,7.80
2018,04,11,05,44,7.80
2018,04,11,05,45,7.80
2018,04,11,05,46,7.80
2018,04,11,05,47,7.80
2018,04,11,05,48,7.80
2018,04,11,05,49,7.80
2018,04,11,05,50,7.80
2018,04,11,05,51,7.80
2018,04,11,05,52,7.80
2018,04,11,05,53,7.80
2018,04,11,05,54,7.80
2018,04,11,05,55,7.80
2018,04,11,05,56,7.80
2018,04,11,05,57,7.80
2018,04,11,05,58,7.80
2018,04,11,05,59,7.80
2018,04,11,06,00,7.80
2018,04,11,06,01,7.80
2018,04,11,06,02,7.80
2018,04,11,06,03,7.80
2018,04,11,06,04,7.80
2018,04,11,06,05,7.80
2018,04,11,06,06,7.80
2018,04,11,06,07,7.80
2018,04,11,06,08,7.80
2018,04,11,06,09,7.80
2018,04,11,06,10,7.80
2018,04,11,06,11,7.80
2018,04,11,06,12,7.80
2018,04,11,06,13,7.80
2018,04,11,06,14,7.80
2018,04,11,06,15,7.80
2018,04,11,06,16,7.80
2018,04,11,06,17,7.80
2018,04,11,06,18,7.80
2018,04,11,06,19,7.80
2018,04,11,06,20,7.80
2018,04,11,06,21,7.80
2018,04,11,06,22,7.80
2018,04,11,06,23,7.80
2018,04,11,06,24,7.80
2018,04,11,06,25,7.80
2018,04,11,06,26,7.80
2018,04,11,06,27,7.80
2018,04,11,06,28,7.80
2018,04,11,06,29,7.80
2018,04,11,06,30,7.80
2018,04,11,06,31,7.80
2018,04,11,06,32,7.80
2018,04,11,06,33,7.80
2018,04,11,06,34,7.80
2018,04,11,06,35,7.80
2018,04,11,06,36,7.80
2018,04,11,06,37,7.80
2018,04,11,06,38,7.80
2018,04,11,06,39,7.80
2018,04,11,06,40,7.80
2018,04,11,06,41,7.80
2018,04,11,06,42,7.80
2018,04,11,06,43,7.80
2018,04,11,06,44,7.80
2018,04,11,06,45,7.80
2018,04,11,06,46,7.80
2018,04,11,06,47,7.80
2018,04,11,06,48,7.80
2018,04,11,06,49,7.80
2018,04,11,06,50,7.80
2018,04,11,06,51,7.80
2018,04,11,06,52,7.80
2018,04,11,06,53,7.80
2018,04,11,06,54,7.80
2018,04,11,06,55,7.80
2018,04,11,06,56,7.80
2018,04,11,06,57,7.80
2018,04,11,06,58,7.80
2018,04,11,06,59,7.80
2018,04,11,07,00,7.80
2018,04,11,07,01,7.80
2018,04,11,07,02,7.80
2018,04,11,07,03,7.80
2018,04,11,07,04,7.80
2018,04,11,07,05,7.80
2018,04,11,07,06,7.80
2018,04,11,07,07,7.80
2018,04,11,07,08,7.80
2018,04,11,07,09,7.80
2018,04,11,07,10,7.80
2018,04,11,07,11,7.80
2018,04,11,07,12,7.80
2018,04,11,07,13,7.80
2018,04,11,07,14,7.80
2018,04,11,07,15,7.80
2018,04,11,07,16,7.80
2018,04,11,07,17,7.80
2018,04,11,07,18,7.80
2018,04,11,07,19,7.90
2018,04,11,07,20,7.90
2018,04,11,07,21,7.90
2018,04,11,07,22,7.90
2018,04,11,07,23,7.90
2018,04,11,07,24,7.90
2018,04,11,07,25,8.00
2018,04,11,07,26,8.00
2018,04,11,07,27,8.00
2018,04,11,07,28,8.00
2018,04,11,07,29,8.00
2018,04,11,07,30,8.00
2018,04,11,07,31,8.10
2018,04,11,07,32,8.10
2018,04,11,07,33,8.10
2018,04,11,07,34,8.10
2018,04,11,07,35,8.10
2018,04,11,07,36,8.20
2018,04,11,07,37,8.20
2018,04,11,07,38,8.20
2018,04,11,07,39,8.20
2018,04,11,07,40,8.20
2018,04,11,07,41,8.30
2018,04,11,07,42,8.30
2018,04,11,07,43,8.30
2018,04,11,07,44,8.30
2018,04,11,07,45,8.30
2018,04,11,07,46,8.40
2018,04,11,07,47,8.40
2018,04,11,07,48,8.40
2018,04,11,07,49,8.40
2018,04,11,07,50,8.40
2018,04,11,07,51,8.40
2018,04,11,07,52,8.40
2018,04,11,07,53,8.50
2018,04,11,07,54,8.50
2018,04,11,07,55,8.50
2018,04,11,07,56,8.50
2018,04,11,07,57,8.50
2018,04,11,07,58,8.60
2018,04,11,07,59,8.60
2018,04,11,08,00,8.60
2018,04,11,08,01,8.60
2018,04,11,08,02,8.70
2018,04,11,08,03,8.70
2018,04,11,08,04,8.70
2018,04,11,08,05,8.70
2018,04,11,08,06,8.70
2018,04,11,08,07,8.70
2018,04,11,08,08,8.70
2018,04,11,08,09,8.70
2018,04,11,08,10,8.80
2018,04,11,08,11,8.80
2018,04,11,08,12,8.80
2018,04,11,08,13,8.80
2018,04,11,08,14,8.80
2018,04,11,08,15,8.80
2018,04,11,08,16,8.80
2018,04,11,08,17,8.80
2018,04,11,08,18,8.80
2018,04,11,08,19,8.80
2018,04,11,08,20,8.80
2018,04,11,08,21,8.80
2018,04,11,08,22,8.80
2018,04,11,08,23,8.80
2018,04,11,08,24,8.90
2018,04,11,08,25,8.90
2018,04,11,08,26,8.90
2018,04,11,08,27,8.90
2018,04,11,08,28,8.90
2018,04,11,08,29,8.90
2018,04,11,08,30,8.90
2018,04,11,08,31,9.00
2018,04,11,08,32,9.00
2018,04,11,08,33,9.00
2018,04,11,08,34,9.00
2018,04,11,08,35,9.00
2018,04,11,08,36,9.10
2018,04,11,08,37,9.10
2018,04,11,08,38,9.10
2018,04,11,08,39,9.10
2018,04,11,08,40,9.10
2018,04,11,08,41,9.10
2018,04,11,08,42,9.10
2018,04,11,08,43,9.10
2018,04,11,08,44,9.20
2018,04,11,08,45,9.20
2018,04,11,08,46,9.20
2018,04,11,08,47,9.20
2018,04,11,08,48,9.20
2018,04,11,08,49,9.20
2018,04,11,08,50,9.20
2018,04,11,08,51,9.30
2018,04,11,08,52,9.30
2018,04,11,08,53,9.40
2018,04,11,08,54,9.40
2018,04,11,08,55,9.50
2018,04,11,08,56,9.50
2018,04,11,08,57,9.50
2018,04,11,08,58,9.60
2018,04,11,08,59,9.60
2018,04,11,09,00,9.60
2018,04,11,09,01,9.70
2018,04,11,09,02,9.70
2018,04,11,09,03,9.70
2018,04,11,09,04,9.70
2018,04,11,09,05,9.70
2018,04,11,09,06,9.70
2018,04,11,09,07,9.70
2018,04,11,09,08,9.80
2018,04,11,09,09,9.80
2018,04,11,09,10,9.70
2018,04,11,09,11,9.70
2018,04,11,09,12,9.70
2018,04,11,09,13,9.70
2018,04,11,09,14,9.70
2018,04,11,09,15,9.70
2018,04,11,09,16,9.70
2018,04,11,09,17,9.70
2018,04,11,09,18,9.70
2018,04,11,09,19,9.60
2018,04,11,09,20,9.60
2018,04,11,09,21,9.60
2018,04,11,09,22,9.60
2018,04,11,09,23,9.60
2018,04,11,09,24,9.60
2018,04,11,09,25,9.60
2018,04,11,09,26,9.60
2018,04,11,09,27,9.50
2018,04,11,09,28,9.50
2018,04,11,09,29,9.50
2018,04,11,09,30,9.50
2018,04,11,09,31,9.50
2018,04,11,09,32,9.50
2018,04,11,09,33,9.50
2018,04,11,09,34,9.50
2018,04,11,09,35,9.50
2018,04,11,09,36,9.50
2018,04,11,09,37,9.50
2018,04,11,09,38,9.50
2018,04,11,09,39,9.50
2018,04,11,09,40,9.50
2018,04,11,09,41,9.50
2018,04,11,09,42,9.50
2018,04,11,09,43,9.50
2018,04,11,09,44,9.50
2018,04,11,09,45,9.50
2018,04,11,09,46,9.50
2018,04,11,09,47,9.50
2018,04,11,09,48,9.60
2018,04,11,09,49,9.60
2018,04,11,09,50,9.60
2018,04,11,09,51,9.60
2018,04,11,09,52,9.50
2018,04,11,09,53,9.50
2018,04,11,09,54,9.50
2018,04,11,09,55,9.50
2018,04,11,09,56,9.60
2018,04,11,09,57,9.60
2018,04,11,09,58,9.60
2018,04,11,09,59,9.60
2018,04,11,10,00,9.60
2018,04,11,10,01,9.60
2018,04,11,10,02,9.60
2018,04,11,10,03,9.60
2018,04,11,10,04,9.60
2018,04,11,10,05,9.60
2018,04,11,10,06,9.60
2018,04,11,10,07,9.70
2018,04,11,10,08,9.70
2018,04,11,10,09,9.70
2018,04,11,10,10,9.70
2018,04,11,10,11,9.70
2018,04,11,10,12,9.70
2018,04,11,10,13,9.70
2018,04,11,10,14,9.70
2018,04,11,10,15,9.70
2018,04,11,10,16,9.70
2018,04,11,10,17,9.70
2018,04,11,10,18,9.70
2018,04,11,10,19,9.70
2018,04,11,10,20,9.80
2018,04,11,10,21,9.80
2018,04,11,10,22,9.80
2018,04,11,10,23,9.80
2018,04,11,10,24,9.80
2018,04,11,10,25,9.80
2018,04,11,10,26,9.80
2018,04,11,10,27,9.90
2018,04,11,10,28,9.90
2018,04,11,10,29,9.90
2018,04,11,10,30,9.90
2018,04,11,10,31,9.90
2018,04,11,10,32,9.90
2018,04,11,10,33,9.90
2018,04,11,10,34,9.90
2018,04,11,10,35,9.90
2018,04,11,10,36,9.90
2018,04,11,10,37,9.90
2018,04,11,10,38,9.90
2018,04,11,10,39,9.90
2018,04,11,10,40,10.00
2018,04,11,10,41,10.10
2018,04,11,10,42,10.10
2018,04,11,10,43,10.10
2018,04,11,10,44,10.10
2018,04,11,10,45,10.10
2018,04,11,10,46,10.10
2018,04,11,10,47,10.10
2018,04,11,10,48,10.10
2018,04,11,10,49,10.10
2018,04,11,10,50,10.10
2018,04,11,10,51,10.10
2018,04,11,10,52,10.10
2018,04,11,10,53,10.10
2018,04,11,10,54,10.10
2018,04,11,10,55,10.20
2018,04,11,10,56,10.20
2018,04,11,10,57,10.20
2018,04,11,10,58,10.20
2018,04,11,10,59,10.20
2018,04,11,11,00,10.20
2018,04,11,11,01,10.20
2018,04,11,11,02,10.20
2018,04,11,11,03,10.20
2018,04,11,11,04,10.20
2018,04,11,11,05,10.30
2018,04,11,11,06,10.30
2018,04,11,11,07,10.30
2018,04,11,11,08,10.30
2018,04,11,11,09,10.30
2018,04,11,11,10,10.40
2018,04,11,11,11,10.40
2018,04,11,11,12,10.40
2018,04,11,11,13,10.40
2018,04,11,11,14,10.40
2018,04,11,11,15,10.40
2018,04,11,11,16,10.40
2018,04,11,11,17,10.50
2018,04,11,11,18,10.60
2018,04,11,11,19,10.60
2018,04,11,11,20,10.60
2018,04,11,11,21,10.60
2018,04,11,11,22,10.60
2018,04,11,11,23,10.60
2018,04,11,11,24,10.60
2018,04,11,11,25,10.50
2018,04,11,11,26,10.40
2018,04,11,11,27,10.40
2018,04,11,11,28,10.40
2018,04,11,11,29,10.40
2018,04,11,11,30,10.40
2018,04,11,11,31,10.40
2018,04,11,11,32,10.40
2018,04,11,11,33,10.40
2018,04,11,11,34,10.40
2018,04,11,11,35,10.40
2018,04,11,11,36,10.40
2018,04,11,11,37,10.40
2018,04,11,11,38,10.40
2018,04,11,11,39,10.40
2018,04,11,11,40,10.40
2018,04,11,11,41,10.40
2018,04,11,11,42,10.40
2018,04,11,11,43,10.40
2018,04,11,11,44,10.40
2018,04,11,11,45,10.40
2018,04,11,11,46,10.40
2018,04,11,11,47,10.40
2018,04,11,11,48,10.40
2018,04,11,11,49,10.40
2018,04,11,11,50,10.30
2018,04,11,11,51,10.30
2018,04,11,11,52,10.40
2018,04,11,11,53,10.40
2018,04,11,11,54,10.40
2018,04,11,11,55,10.40
2018,04,11,11,56,10.40
2018,04,11,11,57,10.40
2018,04,11,11,58,10.40
2018,04,11,11,59,10.40
2018,04,11,12,00,10.40
2018,04,11,12,01,10.40
2018,04,11,12,02,10.40
2018,04,11,12,03,10.40
2018,04,11,12,04,10.40
2018,04,11,12,05,10.40
2018,04,11,12,06,10.40
2018,04,11,12,07,10.40
2018,04,11,12,08,10.40
2018,04,11,12,09,10.40
2018,04,11,12,10,10.40
2018,04,11,12,11,10.40
2018,04,11,12,12,10.40
2018,04,11,12,13,10.40
2018,04,11,12,14,10.40
2018,04,11,12,15,10.40
2018,04,11,12,16,10.40
2018,04,11,12,17,10.30
2018,04,11,12,18,10.30
2018,04,11,12,19,10.30
2018,04,11,12,20,10.30
2018,04,11,12,21,10.30
2018,04,11,12,22,10.30
2018,04,11,12,23,10.30
2018,04,11,12,24,10.20
2018,04,11,12,25,10.20
2018,04,11,12,26,10.20
2018,04,11,12,27,10.20
2018,04,11,12,28,10.10
2018,04,11,12,29,10.10
2018,04,11,12,30,10.10
2018,04,11,12,31,10.10
2018,04,11,12,32,10.10
2018,04,11,12,33,10.10
2018,04,11,12,34,10.10
2018,04,11,12,35,10.10
2018,04,11,12,36,10.10
2018,04,11,12,37,10.00
2018,04,11,12,38,10.00
2018,04,11,12,39,9.90
2018,04,11,12,40,9.90
2018,04,11,12,41,9.90
2018,04,11,12,42,9.90
2018,04,11,12,43,9.90
2018,04,11,12,44,9.90
2018,04,11,12,45,9.90
2018,04,11,12,46,9.90
2018,04,11,12,47,9.90
2018,04,11,12,48,9.90
2018,04,11,12,49,9.90
2018,04,11,12,50,9.90
2018,04,11,12,51,9.90
2018,04,11,12,52,9.90
2018,04,11,12,53,9.90
2018,04,11,12,54,9.90
2018,04,11,12,55,9.90
2018,04,11,12,56,9.90
2018,04,11,12,57,9.90
2018,04,11,12,58,9.90
2018,04,11,12,59,9.90
2018,04,11,13,00,9.90
2018,04,11,13,01,9.90
2018,04,11,13,02,9.90
2018,04,11,13,03,9.90
2018,04,11,13,04,9.90
2018,04,11,13,05,9.90
2018,04,11,13,06,9.90
2018,04,11,13,07,10.00
2018,04,11,13,08,10.10
2018,04,11,13,09,10.10
2018,04,11,13,10,10.10
2018,04,11,13,11,10.10
2018,04,11,13,12,10.10
2018,04,11,13,13,10.00
2018,04,11,13,14,9.90
2018,04,11,13,15,9.90
2018,04,11,13,16,9.90
2018,04,11,13,17,10.00
2018,04,11,13,18,10.10
2018,04,11,13,19,10.00
2018,04,11,13,20,9.90
2018,04,11,13,21,9.90
2018,04,11,13,22,9.90
2018,04,11,13,23,10.00
2018,04,11,13,24,10.10
2018,04,11,13,25,10.10
2018,04,11,13,26,10.10
2018,04,11,13,27,10.10
2018,04,11,13,28,10.10
2018,04,11,13,29,10.10
2018,04,11,13,30,10.10
2018,04,11,13,31,10.10
2018,04,11,13,32,10.20
2018,04,11,13,33,10.10
2018,04,11,13,34,10.10
2018,04,11,13,35,10.10
2018,04,11,13,36,10.10
2018,04,11,13,37,10.10
2018,04,11,13,38,10.10
2018,04,11,13,39,10.10
2018,04,11,13,40,10.10
2018,04,11,13,41,10.00
2018,04,11,13,42,9.90
2018,04,11,13,43,9.90
2018,04,11,13,44,9.90
2018,04,11,13,45,9.90
2018,04,11,13,46,10.00
2018,04,11,13,47,10.10
2018,04,11,13,48,10.10
2018,04,11,13,49,10.10
2018,04,11,13,50,10.10
2018,04,11,13,51,10.10
2018,04,11,13,52,10.10
2018,04,11,13,53,10.10
2018,04,11,13,54,10.10
2018,04,11,13,55,10.10
2018,04,11,13,56,10.10
2018,04,11,13,57,10.10
2018,04,11,13,58,10.20
2018,04,11,13,59,10.20
2018,04,11,14,00,10.30
2018,04,11,14,01,10.20
2018,04,11,14,02,10.20
2018,04,11,14,03,10.20
2018,04,11,14,04,10.20
2018,04,11,14,05,10.10
2018,04,11,14,06,10.10
2018,04,11,14,07,10.10
2018,04,11,14,08,10.10
2018,04,11,14,09,10.10
2018,04,11,14,10,10.00
2018,04,11,14,11,9.90
2018,04,11,14,12,9.90
2018,04,11,14,13,9.90
2018,04,11,14,14,9.90
2018,04,11,14,15,10.00
2018,04,11,14,16,9.90
2018,04,11,14,17,9.90
2018,04,11,14,18,9.90
2018,04,11,14,19,9.90
2018,04,11,14,20,9.90
2018,04,11,14,21,9.90
2018,04,11,14,22,9.90
2018,04,11,14,23,9.90
2018,04,11,14,24,9.90
2018,04,11,14,25,9.90
2018,04,11,14,26,9.90
2018,04,11,14,27,9.90
2018,04,11,14,28,10.10
2018,04,11,14,29,10.10
2018,04,11,14,30,10.10
2018,04,11,14,31,10.10
2018,04,11,14,32,10.10
2018,04,11,14,33,10.10
2018,04,11,14,34,9.90
2018,04,11,14,35,9.90
2018,04,11,14,36,9.90
2018,04,11,14,37,9.90
2018,04,11,14,38,9.80
2018,04,11,14,39,9.80
2018,04,11,14,40,9.80
2018,04,11,14,41,9.70
2018,04,11,14,42,9.70
2018,04,11,14,43,9.70
2018,04,11,14,44,9.70
2018,04,11,14,45,9.70
2018,04,11,14,46,9.60
2018,04,11,14,47,9.60
2018,04,11,14,48,9.60
2018,04,11,14,49,9.60
2018,04,11,14,50,9.60
2018,04,11,14,51,9.60
2018,04,11,14,52,9.50
2018,04,11,14,53,9.50
2018,04,11,14,54,9.50
2018,04,11,14,55,9.50
2018,04,11,14,56,9.50
2018,04,11,14,57,9.50
2018,04,11,14,58,9.50
2018,04,11,14,59,9.50
2018,04,11,15,00,9.50
2018,04,11,15,01,9.50
2018,04,11,15,02,9.50
2018,04,11,15,03,9.60
2018,04,11,15,04,9.60
2018,04,11,15,05,9.60
2018,04,11,15,06,9.70
2018,04,11,15,07,9.70
2018,04,11,15,08,9.70
2018,04,11,15,09,9.70
2018,04,11,15,10,9.80
2018,04,11,15,11,9.80
2018,04,11,15,12,9.90
2018,04,11,15,13,9.90
2018,04,11,15,14,10.10
2018,04,11,15,15,10.20
2018,04,11,15,16,10.30
2018,04,11,15,17,10.40
2018,04,11,15,18,10.40
2018,04,11,15,19,10.40
2018,04,11,15,20,10.40
2018,04,11,15,21,10.40
2018,04,11,15,22,10.40
2018,04,11,15,23,10.40
2018,04,11,15,24,10.40
2018,04,11,15,25,10.40
2018,04,11,15,26,10.40
2018,04,11,15,27,10.40
2018,04,11,15,28,10.40
2018,04,11,15,29,10.40
2018,04,11,15,30,10.40
2018,04,11,15,31,10.40
2018,04,11,15,32,10.40
2018,04,11,15,33,10.40
2018,04,11,15,34,10.40
2018,04,11,15,35,10.30
2018,04,11,15,36,10.30
2018,04,11,15,37,10.20
2018,04,11,15,38,10.20
2018,04,11,15,39,10.10
2018,04,11,15,40,10.10
2018,04,11,15,41,10.10
2018,04,11,15,42,9.90
2018,04,11,15,43,9.90
2018,04,11,15,44,9.90
2018,04,11,15,45,9.90
2018,04,11,15,46,9.90
2018,04,11,15,47,9.90
2018,04,11,15,48,9.90
2018,04,11,15,49,9.90
2018,04,11,15,50,9.90
2018,04,11,15,51,9.80
2018,04,11,15,52,9.80
2018,04,11,15,53,9.80
2018,04,11,15,54,9.80
2018,04,11,15,55,9.80
2018,04,11,15,56,9.80
2018,04,11,15,57,9.70
2018,04,11,15,58,9.70
2018,04,11,15,59,9.70
2018,04,11,16,00,9.70
2018,04,11,16,01,9.70
2018,04,11,16,02,9.70
2018,04,11,16,03,9.70
2018,04,11,16,04,9.70
2018,04,11,16,05,9.70
2018,04,11,16,06,9.70
2018,04,11,16,07,9.70
2018,04,11,16,08,9.70
2018,04,11,16,09,9.70
2018,04,11,16,10,9.70
2018,04,11,16,11,9.70
2018,04,11,16,12,9.70
2018,04,11,16,13,9.70
2018,04,11,16,14,9.70
2018,04,11,16,15,9.70
2018,04,11,16,16,9.70
2018,04,11,16,17,9.70
2018,04,11,16,18,9.70
2018,04,11,16,19,9.70
2018,04,11,16,20,9.70
2018,04,11,16,21,9.70
2018,04,11,16,22,9.70
2018,04,11,16,23,9.70
2018,04,11,16,24,9.70
2018,04,11,16,25,9.70
2018,04,11,16,26,9.70
2018,04,11,16,27,9.70
2018,04,11,16,28,9.70
2018,04,11,16,29,9.70
2018,04,11,16,30,9.60
2018,04,11,16,31,9.60
2018,04,11,16,32,9.60
2018,04,11,16,33,9.60
2018,04,11,16,34,9.60
2018,04,11,16,35,9.60
2018,04,11,16,36,9.60
2018,04,11,16,37,9.60
2018,04,11,16,38,9.60
2018,04,11,16,39,9.60
2018,04,11,16,40,9.60
2018,04,11,16,41,9.60
2018,04,11,16,42,9.60
2018,04,11,16,43,9.60
2018,04,11,16,44,9.60
2018,04,11,16,45,9.60
2018,04,11,16,46,9.50
2018,04,11,16,47,9.60
2018,04,11,16,48,9.60
2018,04,11,16,49,9.60
2018,04,11,16,50,9.60
2018,04,11,16,51,9.60
2018,04,11,16,52,9.70
2018,04,11,16,53,9.70
2018,04,11,16,54,9.70
2018,04,11,16,55,9.70
2018,04,11,16,56,9.70
2018,04,11,16,57,9.70
2018,04,11,16,58,9.70
2018,04,11,16,59,9.70
2018,04,11,17,00,9.70
2018,04,11,17,01,9.70
2018,04,11,17,02,9.70
2018,04,11,17,03,9.70
2018,04,11,17,04,9.70
2018,04,11,17,05,9.70
2018,04,11,17,06,9.70
2018,04,11,17,07,9.80
2018,04,11,17,08,9.80
2018,04,11,17,09,9.80
2018,04,11,17,10,9.70
2018,04,11,17,11,9.70
2018,04,11,17,12,9.60
2018,04,11,17,13,9.50
2018,04,11,17,14,9.40
2018,04,11,17,15,9.30
2018,04,11,17,16,9.20
2018,04,11,17,17,9.10
2018,04,11,17,18,9.00
2018,04,11,17,19,8.90
2018,04,11,17,20,8.80
2018,04,11,17,21,8.80
2018,04,11,17,22,8.80
2018,04,11,17,23,8.70
2018,04,11,17,24,8.70
2018,04,11,17,25,8.70
2018,04,11,17,26,8.60
2018,04,11,17,27,8.60
2018,04,11,17,28,8.60
2018,04,11,17,29,8.60
2018,04,11,17,30,8.60
2018,04,11,17,31,8.60
2018,04,11,17,32,8.60
2018,04,11,17,33,8.60
2018,04,11,17,34,8.70
2018,04,11,17,35,8.70
2018,04,11,17,36,8.70
2018,04,11,17,37,8.70
2018,04,11,17,38,8.70
2018,04,11,17,39,8.70
2018,04,11,17,40,8.70
2018,04,11,17,41,8.60
2018,04,11,17,42,8.60
2018,04,11,17,43,8.60
2018,04,11,17,44,8.60
2018,04,11,17,45,8.60
2018,04,11,17,46,8.60
2018,04,11,17,47,8.60
2018,04,11,17,48,8.60
2018,04,11,17,49,8.60
2018,04,11,17,50,8.50
2018,04,11,17,51,8.50
2018,04,11,17,52,8.50
2018,04,11,17,53,8.40
2018,04,11,17,54,8.40
2018,04,11,17,55,8.40
2018,04,11,17,56,8.40